GW5135 Weather Reports


time (UTC)temp
F
wind
direction
speed
knots
gust
knots
rain 1hr
in
rain 24hr
in
rain mn
in
humidity
%
barometer
mb
20260510130653 62 66 1.7 1.7 0.00 0.00 0.00 83 1016.8
20260510130150 59 83 1.7 1.7 0.00 0.00 0.00 89 1016.9
20260510125646 56 50 0.0 0.9 0.00 0.00 0.00 99 1016.8
20260510125142 55 59 0.0 0.0 0.00 0.00 0.00 99 1017.0
20260510124640 54 87 0.0 0.0 0.00 0.00 0.00 99 1016.9
20260510124136 53 89 0.0 0.0 0.00 0.00 0.00 99 1017.0
20260510123632 52 98 0.0 0.0 0.00 0.00 0.00 99 1017.0
20260510123128 52 80 0.0 0.0 0.00 0.00 0.00 99 1017.0
20260510122624 51 82 0.0 0.0 0.00 0.00 0.00 99 1017.1
20260510122120 50 88 0.0 0.0 0.00 0.00 0.00 99 1016.8
20260510121617 50 83 0.0 0.0 0.00 0.00 0.00 99 1016.8
20260510121115 49 84 0.0 0.0 0.00 0.00 0.00 99 1016.7
20260510120613 49 87 0.0 0.0 0.00 0.00 0.00 99 1016.7
20260510120107 49 84 0.0 0.0 0.00 0.00 0.00 99 1016.8
20260510115604 48 84 0.0 0.0 0.00 0.00 0.00 99 1016.4
20260510115102 48 84 0.0 0.0 0.00 0.00 0.00 99 1016.5
20260510114558 47 84 0.0 0.0 0.00 0.00 0.00 99 1016.2
20260510114054 47 84 0.0 0.0 0.00 0.00 0.00 99 1016.4
20260510113549 47 95 0.0 0.0 0.00 0.00 0.00 99 1016.1
20260510113047 46 100 0.0 0.0 0.00 0.00 0.00 99 1016.3
20260510112543 46 100 0.0 0.0 0.00 0.00 0.00 99 1015.8
20260510112039 46 102 0.0 0.0 0.00 0.00 0.00 99 1016.1
20260510111536 46 139 0.0 0.0 0.00 0.00 0.00 99 1015.6
20260510111032 46 139 0.0 0.0 0.00 0.00 0.00 99 1015.7
20260510110528 45 139 0.0 0.0 0.00 0.00 0.00 99 1015.6
20260510110025 45 139 0.0 0.0 0.00 0.00 0.00 99 1015.6
20260510105520 45 139 0.0 0.0 0.00 0.00 0.00 99 1015.5
20260510105015 45 139 0.0 0.9 0.00 0.00 0.00 99 1015.4
20260510104512 45 138 0.9 0.9 0.00 0.00 0.00 99 1015.3
20260510104008 45 138 0.0 0.0 0.00 0.00 0.00 99 1015.3
20260510103506 45 138 0.0 0.0 0.00 0.00 0.00 99 1015.5
20260510103001 45 138 0.0 0.0 0.00 0.00 0.00 99 1015.2
20260510102457 45 138 0.0 0.0 0.00 0.00 0.00 99 1015.2
20260510101954 45 138 0.0 0.0 0.00 0.00 0.00 99 1014.9
20260510101452 45 138 0.0 0.9 0.00 0.00 0.00 99 1014.8
20260510100950 45 137 0.0 0.9 0.00 0.00 0.00 99 1014.8
20260510100446 45 137 0.0 0.9 0.00 0.00 0.00 99 1014.7
20260510095942 45 130 0.0 0.0 0.00 0.00 0.00 99 1014.7
20260510095438 46 130 0.0 0.0 0.00 0.00 0.00 99 1014.8
20260510094937 45 132 0.0 0.0 0.00 0.00 0.00 99 1014.8
20260510094432 46 131 0.0 0.0 0.00 0.00 0.00 99 1014.5
20260510093928 46 129 0.0 0.0 0.00 0.00 0.00 99 1014.6
20260510093424 46 142 0.0 0.0 0.00 0.00 0.00 99 1014.6
20260510092921 46 142 0.9 1.7 0.00 0.00 0.00 99 1014.5
20260510092419 46 102 0.9 0.9 0.00 0.00 0.00 99 1014.5
20260510091918 46 18 0.0 0.9 0.00 0.00 0.00 99 1014.5
20260510091415 46 113 0.0 0.0 0.00 0.00 0.00 99 1014.2
20260510090912 46 133 0.0 0.0 0.00 0.00 0.00 99 1014.1
20260510090408 46 132 0.0 0.0 0.00 0.00 0.00 99 1014.4
20260510085904 46 133 0.0 0.0 0.00 0.00 0.00 99 1014.3
20260510085359 46 132 0.0 0.0 0.00 0.00 0.00 99 1014.3
20260510084855 46 132 0.0 0.0 0.00 0.00 0.00 99 1014.0
20260510084353 46 131 0.0 0.0 0.00 0.00 0.00 99 1014.1
20260510083849 46 132 0.9 0.9 0.00 0.00 0.00 99 1013.9
20260510083346 46 80 0.0 0.0 0.00 0.00 0.00 99 1014.1
20260510082841 46 80 0.0 0.0 0.00 0.00 0.00 99 1013.8
20260510082339 47 81 0.0 0.0 0.00 0.00 0.00 99 1013.8
20260510081837 47 143 0.0 0.0 0.00 0.00 0.00 99 1014.0
20260510081334 47 143 0.0 0.0 0.00 0.00 0.00 99 1013.9
20260510080830 46 143 0.0 0.0 0.00 0.00 0.00 99 1013.8
20260510080324 47 143 0.0 0.0 0.00 0.00 0.00 99 1013.8
20260510075822 46 143 0.0 0.0 0.00 0.00 0.00 99 1013.6
20260510075319 46 144 0.0 0.0 0.00 0.00 0.00 99 1013.7
20260510074816 46 143 0.0 0.0 0.00 0.00 0.00 99 1013.6
20260510074314 47 143 0.0 0.0 0.00 0.00 0.00 99 1013.7
20260510073809 47 143 0.0 0.0 0.00 0.00 0.00 99 1013.8
20260510073305 47 143 0.0 0.0 0.00 0.00 0.00 99 1013.7
20260510072801 47 144 0.0 0.0 0.00 0.00 0.00 99 1013.7
20260510072258 47 143 0.0 0.0 0.00 0.00 0.00 99 1013.9
20260510071754 47 143 0.0 0.0 0.00 0.00 0.00 99 1013.9
20260510071251 47 144 0.0 0.0 0.00 0.00 0.00 99 1013.9
20260510070750 47 144 0.0 0.0 0.00 0.00 0.00 99 1013.9
20260510070247 47 144 0.0 0.0 0.00 0.00 0.00 99 1014.0
20260510065746 47 144 0.0 0.0 0.00 0.00 0.00 99 1014.0
20260510065243 48 144 0.0 0.0 0.00 0.00 0.00 99 1013.9
20260510064739 47 144 0.0 0.0 0.00 0.00 0.00 99 1013.9
20260510064238 47 144 0.0 0.0 0.00 0.00 0.00 99 1014.0
20260510063733 47 144 0.0 0.0 0.00 0.00 0.00 99 1013.9
20260510063230 47 144 0.0 0.0 0.00 0.00 0.00 99 1013.9
20260510062727 48 144 0.0 0.0 0.00 0.00 0.00 99 1013.8
20260510062223 47 144 0.0 0.0 0.00 0.00 0.00 99 1014.2
20260510061718 48 144 0.0 0.0 0.00 0.00 0.00 99 1013.9
20260510061216 48 144 0.0 0.0 0.00 0.00 0.00 99 1014.0
20260510060712 48 144 0.0 0.0 0.00 0.00 0.00 99 1014.0
20260510060208 48 144 0.0 0.0 0.00 0.00 0.00 99 1014.0
20260510055705 48 143 0.0 0.9 0.00 0.00 0.00 99 1014.2
20260510055203 49 144 0.0 0.0 0.00 0.00 0.00 99 1014.3
20260510054658 48 144 0.0 0.0 0.00 0.00 0.00 99 1014.0
20260510054154 48 144 0.0 0.0 0.00 0.00 0.00 99 1014.0
20260510053653 48 144 0.0 0.0 0.00 0.00 0.00 99 1014.0
20260510053150 48 144 0.0 0.0 0.00 0.00 0.00 99 1014.0
20260510052646 48 144 0.0 0.0 0.00 0.00 0.00 99 1014.3
20260510052142 49 144 0.0 0.0 0.00 0.00 0.00 99 1014.2
20260510051638 49 144 0.0 0.0 0.00 0.00 0.00 99 1014.3
20260510051135 49 144 0.0 0.0 0.00 0.00 0.00 99 1014.5
20260510050632 49 144 0.0 0.0 0.00 0.00 0.00 99 1014.5
20260510050129 49 144 0.0 0.0 0.00 0.00 0.00 99 1014.5
20260510045626 49 144 0.0 0.0 0.00 0.00 0.00 99 1014.4
20260510045122 49 144 0.0 0.0 0.00 0.00 0.00 99 1014.3
20260510044619 50 144 0.0 0.0 0.00 0.00 0.00 99 1014.3
20260510044116 50 144 0.0 0.0 0.00 0.00 0.00 99 1014.3
20260510043612 50 144 0.0 0.0 0.00 0.00 0.00 99 1014.2
20260510043108 50 144 0.0 0.0 0.00 0.00 0.00 99 1014.2
20260510042607 50 144 0.0 0.0 0.00 0.00 0.00 99 1014.3
20260510042102 50 144 0.0 0.0 0.00 0.00 0.00 99 1014.2
20260510041600 50 144 0.0 0.0 0.00 0.00 0.00 98 1014.2
20260510041057 50 144 0.0 0.0 0.00 0.00 0.00 98 1014.1
20260510040553 50 144 0.0 0.0 0.00 0.00 0.00 98 1014.0
20260510040049 50 144 0.0 0.0 0.00 0.00 0.00 98 1014.1
20260510035546 50 144 0.0 0.9 0.00 0.00 0.00 98 1014.1
20260510035045 50 144 0.0 0.9 0.00 0.00 0.00 98 1014.0
20260510034544 50 144 0.9 0.9 0.00 0.00 0.00 98 1014.0
20260510034041 51 144 0.0 0.0 0.00 0.00 0.00 98 1013.9
20260510033536 51 144 0.0 0.0 0.00 0.00 0.00 98 1014.0
20260510033035 51 144 0.0 0.0 0.00 0.00 0.00 98 1013.9
20260510032531 51 144 0.0 0.0 0.00 0.00 0.00 98 1013.9
20260510032026 51 144 0.0 0.0 0.00 0.00 0.00 97 1013.5
20260510031521 51 144 0.0 0.0 0.00 0.00 0.00 97 1013.5
20260510031017 51 144 0.0 0.0 0.00 0.00 0.00 97 1013.6
20260510030513 51 144 0.0 0.0 0.00 0.00 0.00 97 1013.6
20260510030011 52 144 0.0 0.0 0.00 0.00 0.00 97 1013.7
20260510025507 52 144 0.0 0.9 0.00 0.00 0.00 97 1013.7
20260510025006 52 144 0.0 0.0 0.00 0.00 0.00 96 1013.5
20260510024502 52 144 0.0 0.9 0.00 0.00 0.00 96 1013.5
20260510023958 52 144 0.0 0.0 0.00 0.00 0.00 96 1013.4
20260510023454 52 144 0.0 0.0 0.00 0.00 0.00 95 1013.3
20260510022951 53 144 0.0 0.9 0.00 0.00 0.00 95 1013.2
20260510022450 53 144 0.0 0.9 0.00 0.00 0.00 96 1013.4
20260510021949 53 144 0.0 0.0 0.00 0.00 0.00 95 1013.2
20260510021447 53 144 0.0 0.0 0.00 0.00 0.00 95 1013.2
20260510020944 53 144 0.0 0.0 0.00 0.00 0.00 95 1013.1
20260510020438 53 144 0.0 0.0 0.00 0.00 0.00 95 1013.0
20260510015934 53 144 0.0 0.0 0.00 0.00 0.00 94 1012.8
20260510015430 54 144 0.0 0.0 0.00 0.00 0.00 94 1012.8
20260510014925 54 144 0.0 0.0 0.00 0.00 0.00 94 1012.7
20260510014423 54 144 0.0 0.0 0.00 0.00 0.00 93 1012.9
20260510013919 54 144 0.0 0.0 0.00 0.00 0.00 93 1012.6
20260510013414 55 144 0.0 0.0 0.00 0.00 0.00 93 1012.5
20260510012910 55 144 0.0 0.0 0.00 0.00 0.00 92 1012.6
20260510012405 55 144 0.0 0.9 0.00 0.00 0.00 92 1012.5
20260510011900 56 144 0.0 0.0 0.00 0.00 0.00 91 1012.5
20260510011355 56 144 0.0 0.0 0.00 0.00 0.00 90 1012.2
20260510010852 56 144 0.0 0.0 0.00 0.00 0.00 89 1012.2
20260510010349 56 144 0.0 0.0 0.00 0.00 0.00 89 1012.4
20260510005846 57 144 0.0 0.0 0.00 0.00 0.00 88 1012.2
20260510005342 58 144 0.0 0.0 0.00 0.00 0.00 87 1012.0
20260510004840 58 144 0.0 0.0 0.00 0.00 0.00 86 1012.0
20260510004337 58 144 0.0 0.0 0.00 0.00 0.00 84 1011.8
20260510003835 59 144 0.0 0.9 0.00 0.00 0.00 83 1011.9
20260510003332 60 144 0.0 0.0 0.00 0.00 0.00 83 1011.6
20260510002830 60 144 0.9 1.7 0.00 0.00 0.00 83 1011.3
20260510002327 60 334 0.0 0.9 0.00 0.00 0.00 80 1011.6
20260510001824 61 339 0.0 0.0 0.00 0.00 0.00 79 1011.2
20260510001322 62 339 0.0 0.0 0.00 0.00 0.00 79 1011.4
20260510000818 62 339 0.0 0.0 0.00 0.00 0.00 76 1011.2
20260510000318 64 338 0.0 0.9 0.00 0.00 0.00 74 1011.3
20260509235813 64 22 0.9 0.9 0.00 0.00 0.00 72 1011.1
20260509235309 65 28 0.9 0.9 0.00 0.00 0.00 69 1011.3
20260509234805 67 29 0.9 1.7 0.00 0.00 0.00 66 1011.0
20260509234302 67 45 1.7 5.2 0.00 0.00 0.00 60 1011.0
20260509233800 67 44 1.7 2.6 0.00 0.00 0.00 64 1011.2
20260509233257 68 344 0.9 1.7 0.00 0.00 0.00 65 1011.2
20260509232753 68 257 0.0 0.9 0.00 0.00 0.00 60 1011.1
20260509232251 69 294 0.0 2.6 0.00 0.00 0.00 57 1010.9
20260509231747 69 173 0.0 0.0 0.00 0.00 0.00 58 1010.8
20260509231244 70 211 0.9 1.7 0.00 0.00 0.00 57 1010.9
20260509230741 70 285 0.9 1.7 0.00 0.00 0.00 57 1010.9
20260509230238 70 338 0.0 1.7 0.00 0.00 0.00 57 1010.9
20260509225733 70 121 3.5 3.5 0.00 0.00 0.00 55 1011.0
20260509225230 70 85 0.9 7.0 0.00 0.00 0.00 55 1011.0
20260509224725 70 114 0.9 0.9 0.00 0.00 0.00 57 1010.9
20260509224223 69 16 1.7 1.7 0.00 0.00 0.00 56 1011.0
20260509223719 69 14 0.9 2.6 0.00 0.00 0.00 58 1011.2
20260509223217 69 250 0.0 1.7 0.00 0.00 0.00 55 1011.2
20260509222713 69 279 0.9 3.5 0.00 0.00 0.00 57 1011.3
20260509222209 69 270 1.7 6.1 0.00 0.00 0.00 56 1011.3
20260509221705 68 249 1.7 2.6 0.00 0.00 0.00 58 1011.3
20260509221201 69 147 1.7 6.1 0.00 0.00 0.00 56 1011.2
20260509220657 69 17 1.7 2.6 0.00 0.00 0.00 59 1011.3
20260509220153 69 150 3.5 3.5 0.00 0.00 0.00 57 1011.4
20260509215649 70 243 1.7 3.5 0.00 0.00 0.00 56 1011.2
20260509215146 70 126 4.3 8.7 0.00 0.00 0.00 54 1011.3
20260509214643 70 308 3.5 3.5 0.00 0.00 0.00 56 1011.3
20260509214140 71 49 2.6 5.2 0.00 0.00 0.00 54 1011.4
20260509213637 70 246 0.0 1.7 0.00 0.00 0.00 55 1011.2
20260509213133 70 245 0.0 0.0 0.00 0.00 0.00 56 1011.3
20260509212630 69 139 1.7 2.6 0.00 0.00 0.00 55 1011.3
20260509212127 69 276 0.0 1.7 0.00 0.00 0.00 57 1011.2
20260509211623 69 331 0.9 1.7 0.00 0.00 0.00 55 1011.3
20260509211120 69 226 1.7 2.6 0.00 0.00 0.00 57 1011.2
20260509210616 70 268 1.7 1.7 0.00 0.00 0.00 57 1011.2
20260509210114 69 286 4.3 6.1 0.00 0.00 0.00 55 1011.2
20260509205608 70 287 1.7 1.7 0.00 0.00 0.00 57 1011.6
20260509205103 70 287 0.0 0.9 0.00 0.00 0.00 56 1011.1
20260509204559 69 33 0.9 1.7 0.00 0.00 0.00 56 1011.4
20260509204056 68 130 0.9 1.7 0.00 0.00 0.00 55 1011.6
20260509203552 68 128 0.9 1.7 0.00 0.00 0.00 56 1011.2
20260509203051 69 95 0.0 0.9 0.00 0.00 0.00 54 1011.2
20260509202550 69 173 4.3 5.2 0.00 0.00 0.00 55 1011.1
20260509202046 69 5 0.0 2.6 0.00 0.00 0.00 54 1011.1
20260509201541 69 255 1.7 1.7 0.00 0.00 0.00 56 1011.1
20260509201040 68 36 1.7 3.5 0.00 0.00 0.00 53 1011.0
20260509200538 69 301 0.0 2.6 0.00 0.00 0.00 54 1011.1
20260509200036 69 244 0.0 1.7 0.00 0.00 0.00 55 1011.3
20260509195531 69 132 0.9 3.5 0.00 0.00 0.00 53 1011.2
20260509195031 68 286 0.9 0.9 0.00 0.00 0.00 57 1011.3
20260509194526 68 341 0.0 7.8 0.00 0.00 0.00 56 1011.2
20260509194024 68 310 2.6 6.1 0.00 0.00 0.00 56 1011.7
20260509193524 69 310 1.7 2.6 0.00 0.00 0.00 59 1011.6
20260509193022 70 289 2.6 3.5 0.00 0.00 0.00 54 1011.3
20260509192517 71 148 0.9 2.6 0.00 0.00 0.00 53 1011.3
20260509192013 70 282 2.6 3.5 0.00 0.00 0.00 55 1011.4
20260509191508 69 320 1.7 3.5 0.00 0.00 0.00 59 1011.3
20260509191004 69 143 6.1 7.0 0.00 0.00 0.00 57 1011.7
20260509190500 68 169 7.0 8.7 0.00 0.00 0.00 57 1011.4
20260509185958 70 82 0.9 2.6 0.00 0.00 0.00 56 1011.4
20260509185455 68 25 0.0 3.5 0.00 0.00 0.00 59 1011.8
20260509184952 68 292 0.9 3.5 0.00 0.00 0.00 58 1011.4
20260509184451 68 134 2.6 2.6 0.00 0.00 0.00 59 1011.4
20260509183947 67 287 0.0 3.5 0.00 0.00 0.00 63 1011.7
20260509183447 67 274 1.7 3.5 0.00 0.00 0.00 60 1011.6
20260509182943 69 323 1.7 2.6 0.00 0.00 0.00 56 1011.6
20260509182440 68 132 0.9 1.7 0.00 0.00 0.00 57 1011.6
20260509181937 68 2 3.5 5.2 0.00 0.00 0.00 61 1011.7
20260509181435 68 355 1.7 3.5 0.00 0.00 0.00 61 1011.7
20260509180932 67 85 0.0 3.5 0.00 0.00 0.00 60 1011.8
20260509180427 67 148 5.2 7.0 0.00 0.00 0.00 59 1011.7
20260509175925 66 31 0.0 5.2 0.00 0.00 0.00 62 1011.6
20260509175421 67 166 1.7 6.1 0.00 0.00 0.00 58 1011.6
20260509174918 67 164 0.9 1.7 0.00 0.00 0.00 59 1011.9
20260509174414 66 332 0.9 5.2 0.00 0.00 0.00 61 1012.0
20260509173910 66 93 0.9 5.2 0.00 0.00 0.00 59 1011.7
20260509173409 67 159 1.7 2.6 0.00 0.00 0.00 60 1011.9
20260509172906 66 97 5.2 7.0 0.00 0.00 0.00 57 1012.0
20260509172403 65 346 0.9 5.2 0.00 0.00 0.00 58 1012.0
20260509171859 66 290 0.9 1.7 0.00 0.00 0.00 59 1012.0
20260509171355 66 153 0.0 2.6 0.00 0.00 0.00 58 1012.3
20260509170851 65 263 1.7 2.6 0.00 0.00 0.00 59 1012.1
20260509170347 65 326 5.2 6.1 0.00 0.00 0.00 58 1012.3
20260509165848 66 306 1.7 2.6 0.00 0.00 0.00 58 1012.3
20260509165342 65 311 0.9 2.6 0.00 0.00 0.00 57 1012.2
20260509164838 65 325 0.0 0.9 0.00 0.00 0.00 57 1012.4
20260509164335 65 164 1.7 2.6 0.00 0.00 0.00 57 1012.4
20260509163831 65 92 2.6 3.5 0.00 0.00 0.00 59 1012.3
20260509163328 65 71 1.7 7.0 0.00 0.00 0.00 53 1012.4
20260509162828 65 147 3.5 5.2 0.00 0.00 0.00 55 1012.4
20260509162325 65 138 5.2 7.8 0.00 0.00 0.00 58 1012.2
20260509161822 66 135 0.0 7.0 0.00 0.00 0.00 51 1012.4
20260509161319 65 30 0.0 2.6 0.00 0.00 0.00 54 1012.0
20260509160814 65 276 1.7 3.5 0.00 0.00 0.00 55 1012.1
20260509160310 65 303 1.7 5.2 0.00 0.00 0.00 58 1012.3
20260509155806 65 300 0.9 1.7 0.00 0.00 0.00 57 1012.3
20260509155306 64 292 1.7 1.7 0.00 0.00 0.00 58 1012.3
20260509154758 64 335 3.5 3.5 0.00 0.00 0.00 55 1012.5
20260509154256 64 86 0.0 0.0 0.00 0.00 0.00 56 1012.3
20260509153753 64 256 0.0 0.9 0.00 0.00 0.00 60 1012.2
20260509153248 63 111 0.0 1.7 0.00 0.00 0.00 57 1012.1
20260509152745 63 313 1.7 2.6 0.00 0.00 0.00 60 1012.3
20260509152242 62 76 0.0 2.6 0.00 0.00 0.00 55 1012.4
20260509151739 62 77 0.9 1.7 0.00 0.00 0.00 59 1012.4
20260509151235 62 179 0.0 0.9 0.00 0.00 0.00 55 1012.5
20260509150734 62 124 0.9 2.6 0.00 0.00 0.00 58 1012.4
20260509150231 61 98 0.9 0.9 0.00 0.00 0.00 75 1012.1
20260509145729 61 100 0.9 0.9 0.00 0.00 0.00 74 1012.3
20260509145228 61 101 0.0 0.0 0.00 0.00 0.00 75 1012.3
20260509144725 60 101 0.0 0.9 0.00 0.00 0.00 73 1012.5
20260509144222 60 101 0.9 0.9 0.00 0.00 0.00 74 1012.6
20260509143719 60 102 0.0 0.9 0.00 0.00 0.00 70 1012.6
20260509143217 60 103 0.9 0.9 0.00 0.00 0.00 74 1012.7
20260509142712 61 106 0.0 0.9 0.00 0.00 0.00 71 1012.7
20260509142209 61 107 0.0 0.0 0.00 0.00 0.00 69 1012.5
20260509141704 63 107 0.0 0.9 0.00 0.00 0.00 65 1012.3
20260509141202 62 111 0.0 0.9 0.00 0.00 0.00 55 1012.5
20260509140658 62 191 0.9 1.7 0.00 0.00 0.00 58 1012.4
20260509140156 62 167 0.9 2.6 0.00 0.00 0.00 58 1012.3
20260509135653 62 197 1.7 1.7 0.00 0.00 0.00 62 1012.3
20260509135151 63 167 2.6 5.2 0.00 0.00 0.00 63 1011.9
20260509134647 62 176 1.7 2.6 0.00 0.00 0.00 64 1012.3
20260509134145 62 154 0.0 1.7 0.00 0.00 0.00 65 1012.5
20260509133642 63 144 0.9 0.9 0.00 0.00 0.00 64 1012.4
20260509133139 62 122 0.0 0.9 0.00 0.00 0.00 71 1012.3
20260509132637 60 106 0.0 0.0 0.00 0.00 0.00 73 1012.5
20260509132136 59 121 0.0 0.9 0.00 0.00 0.00 74 1012.5
20260509131631 58 144 0.0 0.0 0.00 0.00 0.00 76 1012.4
20260509131128 58 152 0.9 0.9 0.00 0.00 0.00 74 1012.4